Deering, AK

6:10 AM AKDT on September 19, 2017 (GMT -0800)
Deering (New)

Weather History for PADE - April, 2013

Change the Weather History Date:

Sunday, April 21, 2013

  Actual Average (PAOT) Record (PAOT)
Temperature  
Mean Temperature 12 °F -  
Max Temperature 25 °F 24 °F 45 °F (1931)
Min Temperature 1 °F 7 °F -22 °F (1929)
Degree Days  
Heating Degree Days 52    
Moisture  
Dew Point 6 °F    
Average Humidity 76    
Maximum Humidity 88    
Minimum Humidity 65    
Precipitation  
Precipitation 0.00 in - - ()
Sea Level Pressure  
Sea Level Pressure 30.48 in    
Wind  
Wind Speed 7 mph (SSW)    
Max Wind Speed 14 mph    
Max Gust Speed -    
Visibility 10 miles    
Events      
Averages and records for this station are not official NWS values.
T = Trace of Precipitation, MM = Missing Value Source: NWS Daily Summary

Daily Weather History Graph

Daily Weather History Graph

Search for Another Location

Airport or City:

Trip Planner

Search our weather history database for the weather conditions in past years. The results will help you decide how hot, cold, wet, or windy it might be!

Date:

Astronomy

Apr. 21, 2013 Rise Set
Actual Time 6:45 AM AKDT 10:56 PM AKDT
Civil Twilight 5:37 AM AKDT 12:05 AM AKDT
Nautical Twilight 3:22 AM AKDT 2:17 AM AKDT
Astronomical Twilight Sun does not set Sun does not set
Moon 5:21 PM AKDT (4/21) 5:57 AM AKDT (4/21)
Length of Visible Light 18h 28m
Length of Day
16h 11m
Waxing Gibbous, 81% of the Moon is Illuminated
Apr 21
Waxing Gibbous
Apr 25
Full
May 2
Last Quarter
May 9
New
May 17
First Quarter

Hourly Weather History & Observations

Time (AKDT) Temp. Windchill Dew Point Humidity Pressure Visibility Wind Dir Wind Speed Gust Speed Precip Events Conditions
12:53 AM 7.0 °F -9.1 °F 3.9 °F 87% 30.52 in 10.0 mi WSW 12.7 mph - N/A   Clear
1:53 AM 7.0 °F -7.5 °F 3.0 °F 84% 30.52 in 10.0 mi WSW 10.4 mph - N/A   Clear
2:53 AM 3.9 °F -9.4 °F 1.0 °F 88% 30.52 in 10.0 mi WSW 8.1 mph - N/A   Clear
3:53 AM 6.1 °F -9.5 °F 1.9 °F 83% 30.51 in 10.0 mi WSW 11.5 mph - N/A   Clear
4:53 AM 1.9 °F -9.2 °F -2.0 °F 83% 30.51 in 10.0 mi SSW 5.8 mph - N/A   Clear
6:53 AM 3.9 °F -8.2 °F 1.0 °F 88% 30.50 in 10.0 mi SSW 6.9 mph - N/A   Clear
6:55 AM 1.4 °F -12.5 °F -2.2 °F 85% 30.49 in 10.0 mi SSW 8.1 mph - N/A   Clear
7:53 AM 1.0 °F -12.9 °F -4.0 °F 79% 30.49 in 10.0 mi SSW 8.1 mph - N/A   Clear
8:53 AM 1.9 °F - -2.0 °F 83% 30.50 in 10.0 mi Calm Calm - N/A   Clear
9:53 AM 3.9 °F -5.3 °F -0.0 °F 84% 30.50 in 10.0 mi WSW 4.6 mph - N/A   Clear
11:53 AM 10.0 °F - 3.9 °F 76% 30.49 in 10.0 mi Calm Calm - N/A   Clear
12:46 PM 15.8 °F - 6.8 °F 68% 30.49 in 10.0 mi Calm Calm - N/A   Mostly Cloudy
12:53 PM 15.1 °F - 7.0 °F 70% 30.49 in 10.0 mi Calm Calm - N/A   Mostly Cloudy
1:08 PM 15.8 °F - 8.6 °F 73% 30.49 in 10.0 mi Calm Calm - N/A   Scattered Clouds
1:53 PM 17.1 °F - 10.9 °F 77% 30.49 in 10.0 mi Calm Calm - N/A   Clear
2:53 PM 21.0 °F - 12.0 °F 68% 30.48 in 10.0 mi Calm Calm - N/A   Clear
3:53 PM 21.9 °F - 12.0 °F 66% 30.47 in 10.0 mi Calm Calm - N/A   Clear
4:53 PM 21.9 °F 14.5 °F 14.0 °F 72% 30.46 in 10.0 mi ESE 5.8 mph - N/A   Clear
6:53 PM 23.0 °F 18.4 °F 12.9 °F 65% 30.43 in 10.0 mi Variable 3.5 mph - N/A   Clear
7:53 PM 23.0 °F 15.8 °F 12.9 °F 65% 30.41 in 10.0 mi ESE 5.8 mph - N/A   Clear
8:53 PM 24.1 °F 12.5 °F 15.1 °F 69% 30.39 in 10.0 mi SSE 12.7 mph - N/A   Clear
9:53 PM 21.9 °F 9.2 °F 12.9 °F 68% 30.39 in 10.0 mi SSE 13.8 mph - N/A   Clear
10:53 PM 19.0 °F - 10.0 °F 68% 30.39 in 10.0 mi Calm Calm - N/A   Clear